Regional Weather Roundup
Issued by NWS Sioux Falls, SD

Home | Current Version | Previous Version | Text Only | Print | Product List | Glossary On
Versions: 1 2 3 4 5 6 7 8 9 10 11 12 13 14 15 16 17 18 19 20 21 22 23 24 25 26 27 28 29 30 31 32 33 34 35 36 37 38 39 40 41 42 43 44 45 46 47 48 49 50
000
ASUS43 KFSD 240710
RWRFSD

WEATHER ROUNDUP FOR SE SOUTH DAKOTA/SW MINNESOTA/NW IOWA
NATIONAL WEATHER SERVICE SIOUX FALLS SD
200 AM CDT SUN JUL 24 2016

NOTE: "FAIR" INDICATES FEW OR NO CLOUDS BELOW 12,000 FEET WITH NO
SIGNIFICANT WEATHER AND OR OBSTRUCTIONS TO VISIBILITY.


SDZ038>040-050-052>070-240800-
SOUTHEAST SOUTH DAKOTA

CITY           SKY/WX    TMP DP  RH WIND       PRES   REMARKS
BROOKINGS      PTCLDY    71  69  93 NW7       29.89R
CHAMBERLAIN    PTCLDY    67  63  87 CALM      29.95R
HURON          CLEAR     66  64  93 W7        29.89R
MADISON        FAIR      68  68 100 N8        29.90R
MITCHELL       PTCLDY    70  67  90 W6        29.91R
SIOUX FALLS    PTCLDY    76  69  79 N12       29.88R
WINNER         FAIR      68  56  65 SW5       29.99R
YANKTON        PTCLDY    75  66  73 NW12      29.87R
$$

MNZ071-072-080-081-089-090-097-098-240800-
SOUTHWEST MINNESOTA

CITY           SKY/WX    TMP DP  RH WIND       PRES   REMARKS
FAIRMONT       CLEAR     77  54  44 SW6       29.78S
JACKSON        PTCLDY    79  73  83 W8        29.83R
LUVERNE        CLOUDY    77  68  73 NW7       29.87R
MARSHALL       MOCLDY    77  70  79 NW14      29.83R
MONTEVIDEO     CLEAR     73  72  94 N8        29.82R
REDWOOD FALLS  PTCLDY    79  76  90 NW10      29.76F
TRACY          PTCLDY    78  72  81 NW12G17   29.84R
WINDOM         PTCLDY    79  75  89 W14       29.82R
WORTHINGTON    CLEAR     78  75  90 NW16G22   29.86R
$$

IAZ001>003-012>014-020>022-031-032-NEZ013-014-SDZ071-240800-
NORTHWEST IOWA

CITY           SKY/WX    TMP DP  RH WIND       PRES   REMARKS
CHEROKEE       CLEAR     77  77 100 S3        29.82R
DENISON        CLEAR     79  75  89 SW6       29.81S
ESTHERVILLE    CLEAR     76  76 100 SW7       29.80S
LE MARS        PTCLDY    79  77  94 VRB5      29.84R
SHELDON        MOCLDY    79  77  94 NW10      29.83R
SIOUX CITY     PTCLDY    79  76  90 NW5       29.83R
SPENCER        CLEAR     77  75  93 SW6       29.81S
STORM LAKE     CLEAR     77  75  94 SW5       29.83S
$$

ABBREVIATIONS USED IN REMARKS
   TC - TEMPERATURE IN CELSIUS
  WCI - WIND CHILL INDEX
   HX - HEAT INDEX
  VSB - VISIBILITY





USA.gov is the U.S. government's official web portal to all federal, state and local government web resources and services.